This demonstration page uses our WeatherBlox Daily Observations layout. Learn more.

39.92423, -83.80882

Hourly Observations for May 4, 2019

Temp ( °F °C ) Dew Point ( °F °C ) Humidity (%) Winds ( mph kmh ) Pressure ( in mb ) Visibility ( mi km ) Precip ( " mm )
12:56 am 00:56 Cloudy with Mist and Fog 56 13.3 56 13.3 100 100 NNW 7 11 29.97 1015 4 6.43736 0 0
1:56 am 01:56 Cloudy with Mist and Fog 55 12.8 54 12.2 96 96 NNE 7 11 29.96 1014 4 6.43736 0.01 0.254
2:56 am 02:56 Cloudy with Mist and Fog 53 11.7 53 11.7 100 100 N 9 15 29.94 1014 4 6.43736 0 0
3:56 am 03:56 Cloudy with Mist and Fog 52 11.1 52 11.1 100 100 N 7 11 29.94 1014 4 6.43736 0.01 0.254
4:24 am 04:24 Cloudy with Mist and Fog 52 11 52 11 100 100 N 7 11 29.97 1015 2.5 4.02335 0 0
4:56 am 04:56 Cloudy with Mist and Fog 51 10.6 51 10.6 100 100 N 5 7 29.94 1014 2.5 4.02335 0 0
5:56 am 05:56 Cloudy with Mist and Fog 52 11.1 52 11.1 100 100 E 6 9 29.93 1014 3 4.82802 0 0
6:44 am 06:44 Cloudy with Mist and Fog 52 11 52 11 100 100 NNW 6 9 29.95 1014 2.5 4.02335 0 0
6:56 am 06:56 Cloudy with Mist and Fog 52 11.1 52 11.1 100 100 N 6 9 29.94 1014 3 4.82802 0.01 0.254
7:07 am 07:07 Cloudy with Mist and Fog 54 12 52 11 94 94 N 6 9 29.94 1014 3 4.82802 0 0
7:39 am 07:39 Cloudy with Mist and Fog 54 12 52 11 94 94 NW 5 7 29.96 1015 2.5 4.02335 0 0
7:56 am 07:56 Cloudy with Mist and Fog 53 11.7 52 11.1 96 96 NNW 7 11 29.96 1015 2 3.21868 0 0
8:40 am 08:40 Cloudy with Mist and Fog 54 12 52 11 94 94 N 7 11 29.97 1015 3 4.82802 0 0
8:56 am 08:56 Cloudy with Mist and Fog 52 11.1 52 11.1 100 100 NNW 9 15 29.97 1015 3 4.82802 0 0
9:05 am 09:05 Cloudy with Mist and Fog 52 11 52 11 100 100 NNW 8 13 29.98 1015 2 3.21868 0 0
9:40 am 09:40 Cloudy with Mist and Fog 52 11 52 11 100 100 N 8 13 29.98 1015 1.75 2.816345 0 0
9:49 am 09:49 Cloudy with Mist and Fog 52 11 52 11 100 100 N 13 20 29.98 1015 2.5 4.02335 0.01 0.254
9:56 am 09:56 Cloudy with Mist and Fog 52 11.1 51 10.6 97 97 N 9 15 29.97 1015 2.5 4.02335 0.01 0.254
10:06 am 10:06 Cloudy with Mist and Fog 52 11 52 11 100 100 N 10 17 29.97 1015 3 4.82802 0 0
10:17 am 10:17 Cloudy with Mist and Fog 52 11 52 11 100 100 N 12 19 29.97 1015 2.5 4.02335 0 0
10:25 am 10:25 Cloudy with Mist and Fog 52 11 52 11 100 100 NNE 14 22 29.97 1015 2.5 4.02335 0 0
10:34 am 10:34 Cloudy with Mist and Fog 52 11 50 10 94 94 N 13 20 29.97 1015 5 8.0467 0 0
10:53 am 10:53 Cloudy 52 11 52 11 100 100 NNE 8 13 29.97 1015 8 12.87472 0 0
10:56 am 10:56 Cloudy 52 11.1 51 10.6 97 97 NE 10 17 29.97 1015 8 12.87472 0 0
11:12 am 11:12 Cloudy 52 11 52 11 100 100 NE 9 15 29.97 1015 8 12.87472 0 0
11:56 am 11:56 Cloudy 53 11.7 52 11.1 96 96 NNE 8 13 29.96 1015 8 12.87472 0 0
12:56 pm 12:56 Cloudy 55 12.8 52 11.1 90 90 N 8 13 29.96 1014 10 16.0934 0 0
1:56 pm 13:56 Cloudy 56 13.3 52 11.1 87 87 NE 7 11 29.94 1014 10 16.0934 0.01 0.254
2:34 pm 14:34 Cloudy with Light Rain 57 14 54 12 88 88 NE 8 13 29.94 1014 10 16.0934 0 0.0254
2:56 pm 14:56 Cloudy with Light Rain 56 13.3 54 12.2 93 93 NNE 6 9 29.94 1014 6 9.65604 0 0.0254
3:23 pm 15:23 Cloudy with Light Rain 55 13 54 12 94 94 NE 6 9 29.93 1014 6 9.65604 0.01 0.254
3:56 pm 15:56 Cloudy with Light Rain 56 13.3 55 12.8 97 97 NNE 9 15 29.93 1013 8 12.87472 0.01 0.254
4:36 pm 16:36 Cloudy with Light Rain 55 13 55 13 100 100 N 8 13 29.9 1013 6 9.65604 0 0.0254
4:43 pm 16:43 Cloudy with Light Rain 55 13 55 13 100 100 NNE 9 15 29.89 1012 8 12.87472 0 0.0254
4:56 pm 16:56 Cloudy with Light Rain 55 12.8 55 12.8 100 100 NE 9 15 29.9 1012 9 14.48406 0 0.0254
5:56 pm 17:56 Cloudy 55 12.8 54 12.2 96 96 NE 10 17 29.89 1012 10 16.0934 0 0.0254
6:08 pm 18:08 Cloudy 55 13 54 12 94 94 NE 8 13 29.89 1012 10 16.0934 0 0
6:42 pm 18:42 Cloudy 55 13 54 12 94 94 NNE 10 17 29.88 1012 10 16.0934 0 0
6:56 pm 18:56 Cloudy 55 12.8 54 12.2 96 96 ENE 10 17 29.88 1012 10 16.0934 0 0
7:56 pm 19:56 Cloudy 54 12.2 53 11.7 97 97 NE 10 17 29.88 1012 10 16.0934 0.01 0.254
8:13 pm 20:13 Cloudy 54 12 54 12 100 100 NNE 8 13 29.88 1012 9 14.48406 0 0
8:56 pm 20:56 Cloudy 53 11.7 52 11.1 96 96 NNE 8 13 29.88 1012 10 16.0934 0 0
9:56 pm 21:56 Cloudy 53 11.7 52 11.1 96 96 NNE 8 13 29.88 1012 10 16.0934 0 0
10:56 pm 22:56 Cloudy 53 11.7 52 11.1 96 96 NNE 10 17 29.89 1012 10 16.0934 0.01 0.254
11:56 pm 23:56 Cloudy 52 11.1 51 10.6 97 97 N 10 17 29.88 1012 9 14.48406 0 0

Powered by AerisWeather